"Pseudo-MPEC" for P10TUSl

Created 2019 Nov 11 21:07:11 UT using Find_Orb

Click here for an explanation of pseudo-MPECs

 
 Astrometry: 
     P10TUSl  C2019 09 24:)b,,RIUR?NERJ`.iwJqAG+dr8GFFc`PLG6Xpk05t0gx6M,%1Q26F51
     P10TUSl  C2019 09 24d^O2+OOEYUlo4baDQ5T?3EFt%K_0KFj0OV;%,:^a-TuIot!*(tqMF51
     P10TUSl  C2019 09 25tER*Vcp@8M[=3Ot60J`%D;/AstrometryL5ZTc`cd#i@@:`XguPTF51
     P10TUSl  C2019 09 25%,(;R!AP*W+d1oDq2/t)nDM]sWkxcs:%LoVf^3qD@GpS0D/99%7fF51
     P10TUSl  C2019 09 251C-c`#?,s?c_Wv0Yu+Zk8j5!^Nunv`7)JQcMppi39Fc$^/`OG+eHF51
     P10TUSl  C2019 11 02im(b$%Sa)+JV!t1k-J7qNqU72_8=$:`qBXYF]3-@r2ws,b:f01o[F51
     P10TUSl  C2019 11 02@,m%Ed)9$U\]4\t!D;sVlGredacted;bT?VtOAiebPXAOw%h!ZJ8F51
     P10TUSl  C2019 11 02Ha3J+(watx#(ZG!F2=vE9KBmwxrjFY#Jd_H%YF(;qfr=x5mCNr?FF51
     P10TUSl  C2019 11 03.17191003 38 38.26 +32 08 44.6    ~B357 21.3 GVNEOCPH01
     P10TUSl  C2019 11 03.17616803 38 38.41 +32 08 52.6    ~B357 21.3 GVNEOCPH01
     P10TUSl  C2019 11 03.19058003 38 38.89 +32 09 19.7    ~B357 21.6 GVNEOCPH01
     P10TUSl  C2019 11 03.19913103 38 39.17 +32 09 35.7    ~B357 21.6 GVNEOCPH01
     P10TUSl  C2019 11 05fqx^ay=I[#K`6LBQj_H0W@cF3,O,urwt08MMVPbYHo(DL]H]:h;VF52
     P10TUSl  C2019 11 05,jbfeZ=9jU@q1qYDM[9UY9[=r1^rL:Yy\6=OZLp+^g(:SvI3i^*_F52
     P10TUSl  C2019 11 05W;x)h8b^ob@_YJt+@%CaDUw$dEbn_s0]#RO?6x[1^n[XU7C[#q3YF52
     P10TUSl  C2019 11 08OQ%kFe0!BP;R)w=gERyE-6C#LFt9ZIj_;j#ZXVpbq#kH@2ns1mZ6F51
     P10TUSl  C2019 11 08^N7Xgq\10QgeVEAclickMalPhereS;Je/CQVXSm[^N/d3?;fori,F51
     P10TUSl  C2019 11 08ZF+UMlH#ycM?LKp(]IOy^3'`vlexplanationM;a=!B=`wj-EG,bF51
     P10TUSl KC2019 11 09.44446 03 42 22.75 +35 13 01.6    ~BBH7 21.5 RoNEOCP291
     P10TUSl KC2019 11 09.45647 03 42 23.06 +35 13 21.3    ~BBH7 21.6 RoNEOCP291

Station data:
(291) LPL/Spacewatch II  (N31.961669 W111.599905)  US/Arizona.  Observers J.
   V. Scotti, R. S. McMillan. 1.8-m f/2.7 reflector + CCD.
(F51) Pan-STARRS 1, Haleakala  (N20.707235 W156.255910)  US/Hawaii.
   Observers N. Primak, A. Schultz, S. Watters, J. Thiel, T. Goggia. Measurer
   PS1 Science Consortium. 1.8-m Ritchey-Chrétien + CCD.
(F52) Pan-STARRS 2, Haleakala  (N20.707384 W156.255910)  US/Hawaii. 1.8-m
   Ritchey-Chrétien + CCD.
(H01) Magdalena Ridge Observatory, Socorro  (N33.984833 W107.189333)  US/New
   Mexico.  Observers W. H. Ryan, E. V. Ryan. Measurer W. H. Ryan. 2.4-m
   f/8.9 reflector + CCD.

Orbital elements:  P10TUSl
   Perihelion 2019 Nov 17.256850 +/- 0.00284 TT =  6:09:51 (JD 2458804.756850)
Epoch 2019 Nov  9.0 TT = JDT 2458796.5   Earth MOID: 0.2951   Ma: 0.0026
M 357.68218233 +/- 0.0013           (J2000 ecliptic)          AutoNEOCP
n   0.28071450 +/- 8.68e-5          Peri.   35.41092 +/- 0.0027
a   2.31007537 +/- 0.000476         Node    21.06913 +/- 0.0010
e   0.4484420 +/- 9.31e-5           Incl.    7.31268 +/- 0.0010
P   3.51                   H 22.9   G  0.15   U  6.5  
q 1.27414050 +/- 4.78e-5    Q 3.34601023 +/- 0.000905
From 20 observations 2019 Sept. 24-Nov. 9; mean residual 0".19
Residuals in arcseconds: 
190924 F51  .17+  .00     191102 F51  .10+  .13-    191105 F52  .22+  .47+    
190924 F51  .02+  .20-    191103 H01  .06+  .02-    191108 F51  .09+  .03-    
190925 F51  .00   .13-    191103 H01  .11+  .02-    191108 F51  .18+  .23-    
190925 F51  .18-  .28+    191103 H01  .06+  .03+    191108 F51  .13+  .22+    
190925 F51  .04-  .05+    191103 H01  .04+  .02+    191109 291  .26-  .08-    
191102 F51  .03+  .05+    191105 F52  .43-  .38-    191109 291  .15+  .02-    
191102 F51  .01+  .19-    191105 F52  .44-  .31+    

Ephemerides (geocentric):
Date (UTC) HH   RA              Dec         delta   r     elong  mag " sig PA
---- -- -- --  -------------   -----------  ------ ------ -----  --- ---- ---
2019 11 11 21  03 43 39.535   +36 20 30.73  .30027 1.2753 159.3 21.7 .258 116
2019 11 11 22  03 43 40.775   +36 21 38.66  .30025 1.2753 159.3 21.7 .260 116
2019 11 11 23  03 43 42.014   +36 22 46.53  .30023 1.2753 159.3 21.7 .262 116
2019 11 12 00  03 43 43.251   +36 23 54.35  .30021 1.2753 159.3 21.7 .264 116
2019 11 12 01  03 43 44.487   +36 25 02.12  .30019 1.2753 159.4 21.6 .266 116
2019 11 12 02  03 43 45.721   +36 26 09.84  .30017 1.2752 159.4 21.6 .268 116
2019 11 12 03  03 43 46.953   +36 27 17.50  .30016 1.2752 159.4 21.6 .270 116
2019 11 12 04  03 43 48.183   +36 28 25.11  .30014 1.2752 159.4 21.6 .272 116
2019 11 12 05  03 43 49.412   +36 29 32.67  .30012 1.2752 159.4 21.6 .273 116
2019 11 12 06  03 43 50.639   +36 30 40.18  .30010 1.2752 159.4 21.6 .275 116
2019 11 12 07  03 43 51.865   +36 31 47.63  .30008 1.2751 159.4 21.6 .277 116
2019 11 12 08  03 43 53.089   +36 32 55.03  .30007 1.2751 159.4 21.6 .279 116
2019 11 12 09  03 43 54.311   +36 34 02.37  .30005 1.2751 159.4 21.6 .281 116
2019 11 12 10  03 43 55.532   +36 35 09.67  .30003 1.2751 159.4 21.6 .283 116
2019 11 12 11  03 43 56.751   +36 36 16.90  .30002 1.2751 159.4 21.6 .285 116
2019 11 12 12  03 43 57.968   +36 37 24.09  .30000 1.2751 159.4 21.6 .287 116
2019 11 12 13  03 43 59.184   +36 38 31.22  .29999 1.2750 159.4 21.6 .289 116
2019 11 12 14  03 44 00.398   +36 39 38.29  .29997 1.2750 159.4 21.6 .290 116
2019 11 12 15  03 44 01.611   +36 40 45.32  .29995 1.2750 159.4 21.6 .292 116
2019 11 12 16  03 44 02.822   +36 41 52.28  .29994 1.2750 159.5 21.6 .294 116
2019 11 12 17  03 44 04.031   +36 42 59.19  .29992 1.2750 159.5 21.6 .296 116
2019 11 12 18  03 44 05.239   +36 44 06.05  .29991 1.2750 159.5 21.6 .298 116
2019 11 12 19  03 44 06.445   +36 45 12.86  .29989 1.2750 159.5 21.6 .300 115
2019 11 12 20  03 44 07.650   +36 46 19.60  .29988 1.2749 159.5 21.6 .302 115
2019 11 12 21  03 44 08.853   +36 47 26.30  .29987 1.2749 159.5 21.6 .304 115
2019 11 12 22  03 44 10.055   +36 48 32.93  .29985 1.2749 159.5 21.6 .306 115
2019 11 12 23  03 44 11.255   +36 49 39.52  .29984 1.2749 159.5 21.6 .307 115
2019 11 13 00  03 44 12.453   +36 50 46.04  .29982 1.2749 159.5 21.6 .309 115
2019 11 13 01  03 44 13.650   +36 51 52.51  .29981 1.2749 159.5 21.6 .311 115
2019 11 13 02  03 44 14.845   +36 52 58.93  .29980 1.2749 159.5 21.6 .313 115
2019 11 13 03  03 44 16.039   +36 54 05.29  .29978 1.2748 159.5 21.6 .315 115
2019 11 13 04  03 44 17.231   +36 55 11.59  .29977 1.2748 159.5 21.6 .317 115
2019 11 13 05  03 44 18.422   +36 56 17.84  .29976 1.2748 159.5 21.6 .319 115
2019 11 13 06  03 44 19.611   +36 57 24.03  .29975 1.2748 159.5 21.6 .321 115
2019 11 13 07  03 44 20.799   +36 58 30.16  .29974 1.2748 159.5 21.6 .323 115
2019 11 13 08  03 44 21.985   +36 59 36.24  .29972 1.2748 159.5 21.6 .324 115
2019 11 13 09  03 44 23.170   +37 00 42.26  .29971 1.2748 159.5 21.6 .326 115
2019 11 13 10  03 44 24.353   +37 01 48.22  .29970 1.2747 159.6 21.6 .328 115
2019 11 13 11  03 44 25.534   +37 02 54.13  .29969 1.2747 159.6 21.6 .330 115
2019 11 13 12  03 44 26.714   +37 03 59.97  .29968 1.2747 159.6 21.6 .332 115
2019 11 13 13  03 44 27.893   +37 05 05.77  .29967 1.2747 159.6 21.6 .334 115
2019 11 13 14  03 44 29.070   +37 06 11.50  .29966 1.2747 159.6 21.6 .336 115
2019 11 13 15  03 44 30.246   +37 07 17.18  .29965 1.2747 159.6 21.6 .338 115
2019 11 13 16  03 44 31.420   +37 08 22.79  .29964 1.2747 159.6 21.6 .340 115
2019 11 13 17  03 44 32.593   +37 09 28.35  .29963 1.2747 159.6 21.6 .342 115
2019 11 13 18  03 44 33.764   +37 10 33.86  .29962 1.2746 159.6 21.6 .343 115
2019 11 13 19  03 44 34.934   +37 11 39.30  .29961 1.2746 159.6 21.6 .345 115
2019 11 13 20  03 44 36.102   +37 12 44.69  .29960 1.2746 159.6 21.6 .347 115